Waarnemingen

Advertentie
Mijn weer
Madrid/Barajas, Spanje (8221): temperatuur & dauwpunt: 06.07.2020 14:00:00 - 12.07.2020 14:00:00 (CEST)Madrid/Barajas, Spanje (8221): windsnelheid: 06.07.2020 14:00:00 - 12.07.2020 14:00:00 (CEST)Madrid/Barajas, Spanje (8221): windrichting: 06.07.2020 14:00:00 - 12.07.2020 14:00:00 (CEST)Madrid/Barajas, Spanje (8221): luchtdruk: 06.07.2020 14:00:00 - 12.07.2020 14:00:00 (CEST)Madrid/Barajas, Spanje (8221): zicht: 06.07.2020 14:00:00 - 12.07.2020 14:00:00 (CEST)
Datum & Tijd tt [°C] td [°C] ff [km/u] ff [kn] dd ppp [hPa] vv [km]
12.07.2020 14:00:00 32,4 13,6 4 2 ZO 1012,5 10
12.07.2020 13:00:00 29,9 13,6 8 4 O 1013,4 10
12.07.2020 12:00:00 28,0 14,0 8 4 NO - 10
12.07.2020 11:00:00 27,5 13,7 11 6 O 1014,5 10
12.07.2020 10:00:00 24,3 15,4 5 3 ZO 1015,5 10
12.07.2020 09:00:00 22,8 15,2 5 3 NO 1015,0 30
12.07.2020 08:00:00 23,1 14,4 0 0 N 1014,6 30
12.07.2020 07:00:00 23,2 14,5 11 6 NNW 1014,5 10
12.07.2020 06:00:00 24,3 15,0 8 4 OZO 1013,3 10
12.07.2020 05:00:00 24,4 15,1 9 5 OZO 1013,1 10
12.07.2020 04:00:00 25,0 15,6 8 4 O 1013,6 10
12.07.2020 03:00:00 25,4 16,0 8 4 ZO 1013,5 10
12.07.2020 02:00:00 26,1 15,8 4 2 - 1012,4 10
12.07.2020 01:00:00 27,1 15,5 21 11 ZO 1012,1 10
12.07.2020 00:00:00 28,5 14,5 22 12 ZO 1011,9 10
11.07.2020 23:00:00 29,9 13,3 22 12 ZO 1011,0 10
11.07.2020 22:00:00 31,6 11,9 21 11 ZO 1010,2 10
11.07.2020 21:00:00 33,6 12,0 26 14 ZO 1009,3 30
11.07.2020 20:00:00 36,4 8,3 9 5 Z 1008,5 10
11.07.2020 19:00:00 37,1 8,0 9 5 ZO 1008,5 10
11.07.2020 18:00:00 36,4 8,3 15 8 ZZO 1009,3 30
11.07.2020 17:00:00 35,8 9,3 18 10 ZO 1009,7 30
11.07.2020 16:00:00 36,0 7,9 9 5 Z 1010,1 10
11.07.2020 15:00:00 35,7 8,7 9 5 OZO 1010,7 10
11.07.2020 14:00:00 34,7 8,4 13 7 ZZO 1011,7 10
11.07.2020 13:00:00 32,8 11,3 9 5 Z 1012,5 10
11.07.2020 12:00:00 30,9 12,3 5 3 OZO 1013,3 10
11.07.2020 11:00:00 29,0 13,2 8 4 NNO 1013,9 30
11.07.2020 10:00:00 26,7 14,1 9 5 NNO 1014,5 10
11.07.2020 09:00:00 23,7 14,1 5 3 N 1015,2 10
11.07.2020 08:00:00 21,0 13,7 8 4 N 1015,7 30
11.07.2020 07:00:00 20,6 13,5 2 1 - 1015,3 10
11.07.2020 06:00:00 21,4 13,6 8 4 NNO 1014,8 30
11.07.2020 05:00:00 21,2 12,6 4 2 N 1014,7 30
11.07.2020 04:00:00 22,3 12,3 8 4 NNW 1014,3 10
11.07.2020 03:00:00 23,0 12,6 11 6 N 1014,0 10
11.07.2020 02:00:00 23,8 12,4 5 3 NNO 1013,9 10
11.07.2020 01:00:00 25,2 11,4 9 5 NNW 1013,0 10
11.07.2020 00:00:00 26,4 8,8 5 3 O 1011,9 10
10.07.2020 23:00:00 26,7 9,1 4 2 O 1011,3 10
10.07.2020 22:00:00 28,7 8,9 2 1 - 1010,3 10
10.07.2020 21:00:00 32,3 8,5 4 2 - 1009,3 10
10.07.2020 20:00:00 33,3 8,7 8 4 Z 1009,0 10
10.07.2020 19:00:00 33,5 8,9 11 6 ZZO 1008,9 10
10.07.2020 18:00:00 33,3 8,7 4 2 NO 1009,3 30
10.07.2020 17:00:00 32,8 9,6 4 2 NW 1009,7 10
10.07.2020 16:00:00 31,3 10,1 11 6 ZZW 1010,5 30
10.07.2020 15:00:00 32,1 9,8 8 4 Z 1010,9 30
10.07.2020 14:00:00 31,0 10,9 8 4 W 1011,8 30
10.07.2020 13:00:00 29,8 10,8 9 5 ZZO 1012,4 30
10.07.2020 12:00:00 28,1 10,8 5 3 Z 1013,1 30
10.07.2020 11:00:00 26,1 11,1 4 2 Z 1013,8 30
10.07.2020 10:00:00 23,3 11,7 5 3 N 1014,7 30
10.07.2020 09:00:00 20,0 12,0 11 6 N - 10
10.07.2020 08:00:00 18,0 11,8 9 5 N 1015,9 10
10.07.2020 07:00:00 17,5 11,5 8 4 N 1016,1 30
10.07.2020 06:00:00 18,6 11,4 5 3 N 1015,6 10
10.07.2020 05:00:00 19,8 11,8 8 4 N 1015,3 30
10.07.2020 04:00:00 20,0 11,2 4 2 N 1015,6 10
10.07.2020 03:00:00 19,8 12,1 8 4 O 1015,9 30
10.07.2020 02:00:00 20,8 12,0 4 2 - 1016,0 10
10.07.2020 01:00:00 21,0 12,4 11 6 NNW 1016,0 10
10.07.2020 00:00:00 21,1 12,2 15 8 N 1016,2 30
09.07.2020 23:00:00 21,6 11,0 11 6 N 1016,0 30
09.07.2020 22:00:00 22,7 10,1 15 8 ONO 1015,1 30
09.07.2020 21:00:00 23,7 9,7 18 10 O 1015,7 10
09.07.2020 20:00:00 29,2 8,3 21 11 NO 1013,1 10
09.07.2020 19:00:00 28,7 11,8 31 17 N 1012,1 28
09.07.2020 18:00:00 28,0 12,6 28 15 N 1012,1 25
09.07.2020 17:00:00 33,6 6,8 13 7 Z 1010,7 10
09.07.2020 16:00:00 34,7 8,2 21 11 Z 1010,6 10
09.07.2020 15:00:00 34,1 9,0 9 5 ZO 1011,2 30
09.07.2020 14:00:00 33,1 9,7 8 4 Z 1012,1 30
09.07.2020 13:00:00 31,6 10,9 9 5 ZO 1012,9 30
09.07.2020 12:00:00 30,2 12,6 8 4 ZZO 1013,6 10
09.07.2020 11:00:00 28,3 12,9 5 3 ONO 1014,3 10
09.07.2020 10:00:00 26,8 12,8 4 2 - 1014,4 10
09.07.2020 09:00:00 23,6 9,6 8 4 N 1015,3 10
09.07.2020 08:00:00 20,8 8,8 15 8 N 1015,5 30
09.07.2020 07:00:00 21,3 8,5 5 3 N 1014,9 10
09.07.2020 06:00:00 22,4 8,5 8 4 NO 1014,3 30
09.07.2020 05:00:00 21,6 8,8 5 3 NO 1014,4 26
09.07.2020 04:00:00 22,3 8,8 5 3 O 1013,8 10
09.07.2020 03:00:00 23,1 8,2 2 1 O 1013,9 10
09.07.2020 02:00:00 23,9 8,4 4 2 NNO 1013,7 28
09.07.2020 01:00:00 25,4 8,8 15 8 N 1013,1 10
09.07.2020 00:00:00 26,3 8,7 16 9 N 1012,7 10
08.07.2020 23:00:00 27,5 9,3 9 5 NNO 1011,4 10
08.07.2020 22:00:00 28,7 9,9 11 6 O 1009,8 20
08.07.2020 21:00:00 30,5 9,4 21 11 ZO 1009,1 10
08.07.2020 20:00:00 32,4 10,4 29 16 OZO 1008,0 13
08.07.2020 19:00:00 34,3 8,1 31 17 ZO 1007,5 10
08.07.2020 18:00:00 36,0 8,6 21 11 ZO 1007,1 10
08.07.2020 17:00:00 36,0 7,1 16 9 ZO 1007,4 10
08.07.2020 16:00:00 34,8 7,0 22 12 ZO 1008,4 10
08.07.2020 15:00:00 34,0 6,3 24 13 Z 1009,3 10
08.07.2020 14:00:00 36,2 7,3 16 9 OZO 1009,1 17
08.07.2020 13:00:00 35,9 7,0 16 9 ZO 1009,8 30
08.07.2020 12:00:00 34,4 8,2 15 8 ONO 1010,4 15
08.07.2020 11:00:00 31,3 9,5 11 6 ONO 1011,2 10
08.07.2020 10:00:00 27,1 10,3 13 7 ONO 1012,4 30
08.07.2020 09:00:00 24,9 9,2 11 6 ONO 1013,7 10
08.07.2020 08:00:00 24,5 8,0 11 6 N 1013,0 30
08.07.2020 07:00:00 22,8 8,1 8 4 NO 1011,8 10
08.07.2020 06:00:00 23,8 7,8 9 5 ZO 1012,7 10
08.07.2020 05:00:00 23,6 7,2 8 4 N 1012,5 30
08.07.2020 04:00:00 24,2 6,9 8 4 N 1012,2 10
08.07.2020 03:00:00 25,7 6,8 5 3 NNO 1011,8 10
08.07.2020 02:00:00 25,7 5,1 8 4 NO 1012,0 10
08.07.2020 01:00:00 27,9 4,2 5 3 N 1011,5 10
08.07.2020 00:00:00 32,3 5,0 13 7 W 1010,1 10
07.07.2020 23:00:00 33,1 5,6 16 9 WZW 1009,7 30
07.07.2020 22:00:00 34,8 4,3 21 11 WZW 1008,6 30
07.07.2020 21:00:00 36,8 3,9 24 13 WZW 1007,9 30
07.07.2020 20:00:00 38,4 5,1 13 7 ZZW 1007,4 10
07.07.2020 19:00:00 39,0 6,7 18 10 WZW 1007,4 30
07.07.2020 18:00:00 39,0 6,7 13 7 ZZW 1007,6 10
07.07.2020 17:00:00 38,6 7,4 18 10 ZW 1008,6 30
07.07.2020 16:00:00 38,1 7,0 13 7 ZZW 1009,4 10
07.07.2020 15:00:00 37,3 5,3 11 6 ZW 1010,0 30
07.07.2020 14:00:00 35,8 8,6 8 4 W 1011,0 30
07.07.2020 13:00:00 34,9 7,1 5 3 Z 1011,8 30
07.07.2020 12:00:00 32,4 4,2 2 1 NNW 1012,9 10
07.07.2020 11:00:00 29,7 2,0 5 3 N 1013,8 10
07.07.2020 10:00:00 26,4 1,8 5 3 N 1014,7 10
07.07.2020 09:00:00 23,7 1,3 8 4 N 1015,4 10
07.07.2020 08:00:00 21,0 4,5 11 6 N 1016,0 10
07.07.2020 07:00:00 20,7 5,5 9 5 N 1016,0 30
07.07.2020 06:00:00 21,5 6,6 9 5 N 1015,7 10
07.07.2020 05:00:00 22,4 8,1 9 5 N 1015,4 10
07.07.2020 04:00:00 22,9 9,3 5 3 - 1015,2 10
07.07.2020 03:00:00 23,9 9,8 8 4 ONO 1015,1 10
07.07.2020 02:00:00 24,9 10,7 8 4 NO 1014,6 10
07.07.2020 01:00:00 26,3 11,2 15 8 ONO 1014,3 30
07.07.2020 00:00:00 28,2 11,3 13 7 NO 1013,6 10
06.07.2020 23:00:00 30,5 11,9 16 9 NNO 1012,6 10
06.07.2020 22:00:00 32,1 12,8 22 12 N 1011,2 30
06.07.2020 21:00:00 34,8 13,0 21 11 N 1009,9 10
06.07.2020 20:00:00 37,1 11,8 11 6 N 1009,4 10
06.07.2020 19:00:00 37,5 11,5 15 8 N 1009,5 30
06.07.2020 18:00:00 36,6 11,4 11 6 N 1010,2 30
06.07.2020 17:00:00 36,3 11,9 11 6 NNO 1010,6 10
06.07.2020 16:00:00 37,5 12,0 11 6 N 1010,7 30
06.07.2020 15:00:00 36,2 11,8 15 8 WNW 1011,8 30
06.07.2020 14:00:00 35,9 12,2 9 5 W 1012,4 30

tt = temperatuur
td = dauwpunt
ff = windsnelheid
dd = windrichting
ppp = luchtdruk
vv = zicht

Weerstations in de omgeving